[[{"header":{"parameterUnit":"m.s-1","parameterCategory":1,"la1":30.2991,"la2":30.254,"lo1":-89.0895,"lo2":-89.0444,"dy":0.0017,"dx":0.0017,"nx":28,"ny":28,"refTime":"2023-09-07T21:00:00:Z","depth":0,"parameterNumber":2,"parameterNumberName":"U-component_of_WINDS"},"data":[0,0,0,0,0,0,0,0,0,0,0,0,0,0,0,0,0,0,0,0,0,0,0,0,0,0,0,0,0,0,0,0,0,0,0,0,0,0,0,0,0,0,0,0,0,0,0,0,0,0,0,0,0,0,0,0,0,0,-1.5149,-1.5149,0,-1.5115,-1.5115,-1.5114,-1.4991,-1.4988,-1.4985,-1.4982,-1.4952,-1.4954,-1.4956,0,0,0,0,0,0,0,0,0,0,0,0,0,-1.5111,-1.5113,-1.5149,-1.5149,-1.5148,-1.5115,-1.5115,-1.5114,-1.4991,-1.4988,-1.4984,-1.4981,-1.4952,-1.4954,-1.4956,0,0,0,0,0,0,0,0,0,0,0,0,0,-1.5108,-1.5113,-1.5149,-1.5083,-1.5077,-1.5115,-1.5115,-1.5114,-1.4992,-1.4988,-1.4983,-1.498,-1.4951,-1.4954,-1.4956,-1.5058,0,0,-1.4965,-1.4966,0,0,0,0,0,0,0,0,-1.5108,-1.5109,-1.5093,-1.5088,-1.5081,-1.5053,-1.509,-1.5095,-1.4993,-1.5024,-1.4982,-1.4977,-1.4989,-1.4989,-1.4992,-1.5057,-1.5055,-1.4965,-1.4967,-1.4968,-1.4969,0,0,0,0,0,0,0,-1.5108,-1.511,-1.5136,-1.5093,-1.5085,-1.5056,-1.5051,-1.509,-1.5031,-1.5021,-1.5012,-1.501,-1.4985,-1.4989,-1.499,-1.5055,-1.4965,-1.4967,-1.4969,-1.497,-1.52,-1.5205,0,0,0,0,0,0,-1.5118,-1.5111,-1.5137,-1.5135,-1.5084,-1.506,-1.5054,-1.5066,-1.503,-1.5021,-1.5013,-1.5004,-1.4987,-1.4987,-1.4989,-1.5105,-1.4968,-1.497,-1.4972,-1.5196,-1.5201,-1.5206,0,0,0,0,0,0,-1.5117,-1.5121,-1.5138,-1.512,-1.512,-1.5065,-1.5079,-1.5068,-1.5072,-1.5024,-1.5013,-1.5028,-1.4984,-1.4985,-1.5041,-1.5103,-1.4972,-1.4974,-1.5191,-1.5198,-1.5204,-1.534,0,0,0,0,0,0,-1.5117,-1.5122,-1.5159,-1.5122,-1.5122,-1.5191,-1.5083,-1.507,-1.5076,-1.5064,-1.5035,-1.5027,-1.498,-1.5038,-1.5044,-1.5104,-1.4976,-1.5185,-1.5194,-1.5202,-1.533,-1.5351,-1.5368,0,0,0,0,0,-1.5116,-1.52,-1.5162,-1.5166,-1.5167,-1.5195,-1.5195,-1.5138,-1.5082,-1.5119,-1.5088,-1.5028,-1.5094,-1.5045,-1.505,-1.5112,-1.5181,-1.5191,-1.5201,-1.5321,-1.5347,-1.5368,0,0,0,0,0,0,-1.5249,-1.5194,-1.5151,-1.5226,-1.5216,-1.5174,-1.522,-1.5167,-1.5174,-1.5162,-1.5093,-1.5087,-1.5154,-1.5138,-1.5084,-1.5208,-1.5127,-1.5139,-1.5217,-1.524,-1.5259,-1.5263,-1.4978,0,0,0,0,0,-1.5286,-1.5312,-1.5263,-1.5334,-1.5331,-1.5277,-1.5286,-1.5243,-1.5231,-1.5226,-1.5199,-1.5191,-1.5209,-1.5223,-1.5238,-1.5326,-1.5318,-1.5371,-1.539,-1.5406,-1.5418,-1.5464,-1.5487,-1.5239,-1.5239,-1.5239,0,0,-1.5365,-1.5338,-1.5359,-1.536,-1.5347,-1.5376,-1.5274,-1.5309,-1.5331,-1.5232,-1.5283,-1.5263,-1.5249,-1.5321,-1.5352,-1.531,-1.5484,-1.5419,-1.5432,-1.5435,-1.5476,-1.55,-1.5521,-1.5246,-1.5245,-1.5244,0,0,-1.5524,-1.5506,-1.5563,-1.5551,-1.5531,-1.5494,-1.5508,-1.5474,-1.5456,-1.5506,-1.5432,-1.5457,-1.549,-1.5483,-1.5484,-1.5637,-1.5582,-1.5643,-1.5745,-1.579,-1.581,-1.5827,-1.5883,-1.5903,-1.5655,-1.5655,-1.5655,0,-1.5626,-1.5665,-1.5599,-1.5639,-1.5642,-1.555,-1.5608,-1.56,-1.5588,-1.5592,-1.5545,-1.5584,-1.5568,-1.5638,-1.5675,-1.5678,-1.5692,-1.5648,-1.5812,-1.5828,-1.5843,-1.5896,-1.5917,-1.5663,-1.5662,-1.5661,-1.566,0,-1.5791,-1.582,-1.5868,-1.5856,-1.5863,-1.5912,-1.5854,-1.587,-1.5825,-1.5794,-1.5845,-1.5822,-1.583,-1.5843,-1.5801,-1.5906,-1.5881,-1.5824,-1.5742,-1.5876,-1.5924,-1.5943,-1.5674,-1.5671,-1.5669,-1.5667,0,0,-1.6037,-1.5984,-1.6004,-1.5997,-1.5967,-1.5989,-1.6033,-1.6038,-1.6054,-1.6047,-1.6084,-1.6113,-1.6059,-1.606,-1.6015,-1.6054,-1.6178,-1.5992,-1.5991,-1.6029,-1.6294,-1.634,-1.6364,-1.614,-1.6143,-1.6146,-1.6296,0,-1.6189,-1.626,-1.6201,-1.6284,-1.631,-1.6222,-1.6261,-1.6247,-1.6218,-1.6236,-1.6204,-1.6226,-1.6153,-1.6153,-1.6187,-1.6156,-1.6231,-1.6144,-1.6175,-1.6177,-1.6184,-1.6389,-1.6437,-1.658,-1.6315,-1.6318,-1.632,0,-1.6377,-1.6377,-1.6462,-1.6426,-1.6434,-1.647,-1.647,-1.6488,-1.6471,-1.6446,-1.6446,-1.639,-1.6432,-1.6349,-1.6405,-1.6348,-1.6356,-1.6342,-1.6346,-1.6349,-1.6259,-1.64,-1.6624,-1.6646,-1.6349,-1.6346,-1.6344,0,-1.655,-1.6571,-1.6624,-1.662,-1.6579,-1.6606,-1.659,-1.6568,-1.6575,-1.6575,-1.6579,-1.6585,-1.6589,-1.6594,-1.6542,-1.6486,-1.6606,-1.6518,-1.6589,-1.659,-1.662,-1.662,-1.6852,-1.6622,-1.6622,-1.6622,-1.6621,0,-1.6728,-1.6784,-1.6701,-1.6734,-1.6794,-1.6725,-1.6787,-1.6762,-1.6743,-1.677,-1.6694,-1.6722,-1.665,-1.667,-1.6629,-1.6683,-1.6685,-1.6667,-1.6656,-1.6676,-1.6678,-1.6683,-1.6672,-1.6627,-1.6626,-1.6625,-1.6624,0,-1.6933,-1.6879,-1.6932,-1.6886,-1.6876,-1.6923,-1.6885,-1.6914,-1.6878,-1.6914,-1.6918,-1.6863,-1.6883,-1.6829,-1.6842,-1.6814,-1.6892,-1.6864,-1.6898,-1.689,-1.6964,-1.6959,-1.7209,-1.7239,-1.6989,-1.6991,-1.6993,0,-1.7052,-1.7092,-1.705,-1.7062,-1.705,-1.707,-1.7076,-1.7009,-1.7018,-1.7,-1.7032,-1.7045,-1.7052,-1.7088,-1.705,-1.7058,-1.7031,-1.7118,-1.7032,-1.705,-1.7035,-1.7034,-1.7038,-1.7137,-1.714,-1.7143,-1.7145,0,-1.7268,-1.7239,-1.7249,-1.725,-1.7258,-1.7256,-1.7249,-1.7263,-1.7191,-1.7206,-1.7224,-1.7229,-1.724,-1.7254,-1.7254,-1.7239,-1.7181,-1.7171,-1.7188,-1.721,-1.7229,-1.7221,-1.6949,-1.7167,-1.7165,-1.7163,-1.7162,-1.7161,-1.7435,-1.7466,-1.7441,-1.7455,-1.7442,-1.7436,-1.7461,-1.7427,-1.744,-1.7443,-1.7402,-1.7429,-1.7409,-1.7403,-1.7393,-1.7414,-1.7374,-1.7399,-1.7405,-1.7413,-1.7426,-1.7223,-1.7413,-1.7412,-1.7412,-1.7411,-1.7411,0,-1.7649,-1.7628,-1.7641,-1.7632,-1.7642,-1.7583,-1.7571,-1.7585,-1.7609,-1.7594,-1.7602,-1.7623,-1.7635,-1.7597,-1.7604,-1.7628,-1.7602,-1.7633,-1.7632,-1.7629,-1.746,-1.7445,-1.7654,-1.7654,-1.7654,-1.7654,-1.7654,-1.7654,-1.7762,-1.7813,-1.778,-1.7823,-1.7801,-1.7826,-1.7824,-1.7819,-1.7806,-1.7832,-1.7842,-1.7815,-1.7791,-1.7796,-1.7805,-1.7793,-1.7801,-1.7841,-1.7821,-1.7665,-1.7641,-1.7619,-1.7605,-1.7843,-1.7843,-1.7988,-1.799,-1.7991]},{"header":{"parameterUnit":"m.s-1","parameterCategory":1,"la1":30.2991,"la2":30.254,"lo1":-89.0895,"lo2":-89.0444,"dy":0.0017,"dx":0.0017,"nx":28,"ny":28,"refTime":"2023-09-07T21:00:00:Z","depth":0,"parameterNumber":3,"parameterNumberName":"V-component_of_WINDS"},"data":[0,0,0,0,0,0,0,0,0,0,0,0,0,0,0,0,0,0,0,0,0,0,0,0,0,0,0,0,0,0,0,0,0,0,0,0,0,0,0,0,0,0,0,0,0,0,0,0,0,0,0,0,0,0,0,0,0,0,-3.5906,-3.5907,0,-3.5963,-3.5963,-3.5964,-3.593,-3.5928,-3.5926,-3.5925,-3.5979,-3.5982,-3.5985,0,0,0,0,0,0,0,0,0,0,0,0,0,-3.5765,-3.5768,-3.5906,-3.5907,-3.5908,-3.5963,-3.5963,-3.5964,-3.593,-3.5928,-3.5926,-3.5924,-3.5978,-3.5981,-3.5985,0,0,0,0,0,0,0,0,0,0,0,0,0,-3.5825,-3.5769,-3.5906,-3.5897,-3.5897,-3.5963,-3.5963,-3.5964,-3.593,-3.5928,-3.5926,-3.5923,-3.5977,-3.5981,-3.5985,-3.6061,0,0,-3.5999,-3.6001,0,0,0,0,0,0,0,0,-3.5821,-3.583,-3.5898,-3.5898,-3.5898,-3.5937,-3.5933,-3.5997,-3.5931,-3.5918,-3.5925,-3.5922,-3.5967,-3.5972,-3.5987,-3.6064,-3.6066,-3.5999,-3.6002,-3.6004,-3.6005,0,0,0,0,0,0,0,-3.5817,-3.5827,-3.5929,-3.5899,-3.5899,-3.5889,-3.5895,-3.5945,-3.5955,-3.5919,-3.5916,-3.5924,-3.5966,-3.5983,-3.5988,-3.6067,-3.5999,-3.6003,-3.6006,-3.6007,-3.6207,-3.6209,0,0,0,0,0,0,-3.5814,-3.5824,-3.5927,-3.593,-3.5853,-3.5894,-3.59,-3.5927,-3.5954,-3.5956,-3.5926,-3.5922,-3.5977,-3.5983,-3.599,-3.608,-3.6004,-3.6008,-3.601,-3.6204,-3.6208,-3.621,0,0,0,0,0,0,-3.5811,-3.5824,-3.5924,-3.5877,-3.5889,-3.5899,-3.5929,-3.5929,-3.5946,-3.596,-3.5961,-3.5942,-3.5975,-3.5984,-3.6044,-3.6081,-3.601,-3.6014,-3.6201,-3.6205,-3.6209,-3.626,0,0,0,0,0,0,-3.5808,-3.5823,-3.5853,-3.5878,-3.5891,-3.5978,-3.5931,-3.5932,-3.5954,-3.595,-3.5975,-3.5977,-3.5974,-3.6037,-3.6048,-3.6086,-3.6017,-3.6198,-3.6203,-3.6208,-3.6255,-3.6265,-3.6274,0,0,0,0,0,-3.5803,-3.5864,-3.5855,-3.5867,-3.5929,-3.5981,-3.5988,-3.5985,-3.5958,-3.5987,-3.5996,-3.5976,-3.6076,-3.6044,-3.6056,-3.6095,-3.6195,-3.6202,-3.6207,-3.6251,-3.6263,-3.6274,0,0,0,0,0,0,-3.5842,-3.5867,-3.5857,-3.5929,-3.5953,-3.5975,-3.6012,-3.5999,-3.603,-3.6024,-3.6018,-3.6024,-3.6086,-3.6097,-3.6061,-3.617,-3.6131,-3.614,-3.616,-3.6172,-3.6181,-3.6176,-3.6021,0,0,0,0,0,-3.586,-3.5901,-3.592,-3.5982,-3.5995,-3.6001,-3.6024,-3.6019,-3.6043,-3.6053,-3.6066,-3.6089,-3.6126,-3.615,-3.6184,-3.6257,-3.6261,-3.629,-3.6299,-3.6307,-3.6314,-3.6352,-3.6364,-3.623,-3.623,-3.623,0,0,-3.5895,-3.5914,-3.594,-3.599,-3.6008,-3.6049,-3.601,-3.6055,-3.6085,-3.6059,-3.6117,-3.6127,-3.6153,-3.6219,-3.6249,-3.623,-3.6352,-3.6315,-3.6321,-3.6323,-3.6359,-3.6372,-3.6383,-3.6234,-3.6233,-3.6233,0,0,-3.5981,-3.6001,-3.6053,-3.6073,-3.6102,-3.6106,-3.6118,-3.6143,-3.6149,-3.6207,-3.6188,-3.6223,-3.6286,-3.6305,-3.6323,-3.6416,-3.6399,-3.6428,-3.6476,-3.6513,-3.6524,-3.6533,-3.6565,-3.6576,-3.6435,-3.6435,-3.6435,0,-3.6021,-3.6084,-3.6082,-3.6129,-3.615,-3.6131,-3.6183,-3.6202,-3.624,-3.6254,-3.6233,-3.6312,-3.6328,-3.6397,-3.642,-3.6436,-3.6449,-3.6424,-3.6523,-3.6532,-3.6541,-3.6571,-3.6583,-3.6438,-3.6438,-3.6437,-3.6437,0,-3.6131,-3.6175,-3.6214,-3.6253,-3.6279,-3.6328,-3.6332,-3.6359,-3.6352,-3.6358,-3.6417,-3.6435,-3.6472,-3.6489,-3.6483,-3.6558,-3.6545,-3.6524,-3.6484,-3.6557,-3.6585,-3.6596,-3.6443,-3.6441,-3.644,-3.644,0,0,-3.6242,-3.6279,-3.6293,-3.631,-3.6341,-3.6374,-3.6422,-3.646,-3.6482,-3.6509,-3.6548,-3.6603,-3.6583,-3.6603,-3.6599,-3.6632,-3.6703,-3.6606,-3.6606,-3.6622,-3.6784,-3.6799,-3.6812,-3.6692,-3.6694,-3.6696,-3.6782,0,-3.6328,-3.6414,-3.6413,-3.6491,-3.6531,-3.6513,-3.6555,-3.6577,-3.6584,-3.6618,-3.6625,-3.6663,-3.6635,-3.6647,-3.6679,-3.6687,-3.6735,-3.6681,-3.6726,-3.6728,-3.6718,-3.6827,-3.6843,-3.6922,-3.6793,-3.6795,-3.6796,0,-3.644,-3.6472,-3.6554,-3.6579,-3.6595,-3.6633,-3.6667,-3.67,-3.6725,-3.6728,-3.6751,-3.6741,-3.6789,-3.675,-3.6814,-3.6778,-3.6797,-3.6804,-3.6806,-3.6809,-3.6765,-3.683,-3.6948,-3.6959,-3.6813,-3.6812,-3.6811,0,-3.651,-3.6574,-3.6631,-3.6646,-3.6677,-3.6703,-3.6717,-3.674,-3.6762,-3.6792,-3.6806,-3.6841,-3.6859,-3.6885,-3.6885,-3.6857,-3.695,-3.6911,-3.6951,-3.6951,-3.697,-3.6968,-3.709,-3.6986,-3.6985,-3.6985,-3.6985,0,-3.6605,-3.6656,-3.6663,-3.6698,-3.6754,-3.6752,-3.6807,-3.6818,-3.6839,-3.6874,-3.6861,-3.6895,-3.6893,-3.6927,-3.6927,-3.6979,-3.6988,-3.699,-3.6989,-3.699,-3.699,-3.7001,-3.6994,-3.6988,-3.6988,-3.6987,-3.6986,0,-3.6692,-3.6699,-3.676,-3.6784,-3.6791,-3.6831,-3.6851,-3.6884,-3.6891,-3.6936,-3.6946,-3.6956,-3.6995,-3.6998,-3.7043,-3.7043,-3.7106,-3.71,-3.7097,-3.7096,-3.7135,-3.713,-3.7266,-3.7283,-3.717,-3.7171,-3.7172,0,-3.6751,-3.6789,-3.6818,-3.6842,-3.6857,-3.6896,-3.6919,-3.6919,-3.6944,-3.6975,-3.7003,-3.7042,-3.7072,-3.7135,-3.7145,-3.7179,-3.7172,-3.7217,-3.7177,-3.7176,-3.717,-3.7167,-3.717,-3.7224,-3.7226,-3.7227,-3.7227,0,-3.6854,-3.6856,-3.6891,-3.6927,-3.6955,-3.6983,-3.701,-3.7029,-3.7033,-3.7061,-3.7101,-3.7125,-3.7171,-3.7208,-3.7242,-3.7254,-3.7241,-3.7241,-3.7251,-3.7251,-3.7248,-3.7248,-3.7116,-3.7237,-3.7236,-3.7235,-3.7235,-3.7234,-3.6927,-3.696,-3.6986,-3.7025,-3.7045,-3.707,-3.7102,-3.7113,-3.7147,-3.7185,-3.7183,-3.7227,-3.7251,-3.7294,-3.731,-3.7343,-3.7327,-3.7343,-3.7347,-3.735,-3.7354,-3.7245,-3.7349,-3.7349,-3.7349,-3.7349,-3.7348,0,-3.7028,-3.7044,-3.708,-3.7117,-3.7148,-3.7135,-3.7164,-3.7189,-3.7229,-3.7252,-3.7283,-3.7329,-3.7365,-3.7378,-3.7413,-3.7437,-3.7432,-3.7446,-3.7443,-3.7446,-3.7367,-3.7353,-3.745,-3.745,-3.745,-3.745,-3.745,-3.745,-3.7084,-3.7139,-3.7144,-3.7208,-3.7223,-3.7268,-3.7285,-3.7307,-3.7326,-3.7378,-3.7409,-3.7418,-3.7437,-3.7473,-3.7505,-3.7508,-3.7521,-3.7537,-3.7537,-3.7462,-3.7452,-3.7442,-3.7429,-3.7541,-3.7541,-3.7614,-3.7614,-3.7615]}]]